Theta_e
343 342 342 343 344 344 345 345 346 346 346 347 347 347 348 348 348 348 348 348 349 349 349 350 350 350 350 348 346 343 340 337 335 336 337 339 340 341 342 343 344 345 345 344 344 342 340 342 345 345 342 340 339 339 332 322 317 316 318 320 319 322 324
343 343 342 343 343 343 344 345 346 346 346 346 347 347 348 348 348 349 349 349 349 349 349 350 350 350 350 349 347 344 341 338 336 336 336 337 338 340 341 342 343 344 345 344 343 342 341 341 343 343 342 340 339 338 334 324 317 316 318 319 319 320 322
344 344 343 343 343 343 344 345 345 345 346 346 347 347 348 348 348 349 349 349 350 350 350 350 350 350 349 349 349 346 343 339 338 337 337 337 338 338 340 341 343 344 345 345 343 343 342 342 342 341 341 340 339 338 336 329 320 316 317 318 318 319 320
343 345 345 343 345 344 344 345 344 345 346 346 346 347 347 348 348 349 349 349 350 350 351 351 351 351 349 350 350 348 346 342 340 338 337 337 337 338 339 341 342 345 345 345 344 343 343 343 342 342 341 340 340 338 337 334 324 317 317 318 318 319 319
344 345 345 345 346 345 345 345 344 345 345 346 346 346 347 348 349 350 350 350 350 349 350 351 351 351 351 350 351 350 348 345 341 340 339 338 338 338 339 340 341 344 345 345 345 344 344 344 343 343 342 340 340 339 338 336 326 317 316 317 318 319 319
344 344 345 345 346 346 346 346 345 346 346 346 346 346 347 348 349 350 350 350 351 351 351 351 351 352 352 351 351 351 350 348 345 343 342 341 340 339 339 340 341 342 343 344 345 345 345 344 343 342 342 341 340 340 339 337 328 319 316 317 317 318 318
344 345 345 345 346 346 346 346 346 346 346 346 346 347 348 349 349 350 351 351 352 352 352 352 352 352 352 352 352 352 351 350 348 346 345 343 342 341 339 340 341 341 342 343 344 344 344 344 343 342 342 342 341 340 340 338 333 323 317 316 317 317 318
344 345 345 345 346 346 346 347 347 347 347 347 348 348 349 349 350 350 351 351 352 352 353 353 352 352 353 353 352 352 352 351 350 348 347 346 344 343 340 340 341 342 342 342 342 343 343 342 342 342 342 343 342 341 340 340 338 329 319 316 316 317 317
344 344 344 345 346 346 347 347 347 347 348 348 348 349 349 349 350 350 351 351 352 353 353 353 353 352 353 353 353 353 352 352 352 351 350 348 346 344 341 340 341 342 342 342 342 342 342 342 342 342 343 343 342 342 341 340 341 335 325 317 316 317 317
345 344 345 346 345 346 347 346 348 348 348 349 349 349 350 349 350 350 351 352 352 353 353 353 353 353 353 354 353 353 353 353 353 352 352 350 347 344 342 340 341 341 341 342 342 342 342 341 342 342 343 343 343 343 342 341 342 340 332 324 318 316 317
345 345 345 346 345 346 347 346 349 348 349 350 349 350 350 350 351 351 351 353 352 353 354 353 354 354 354 354 354 354 354 353 353 353 352 351 347 345 342 341 342 341 341 341 342 342 342 341 342 343 343 344 343 343 343 342 341 341 338 332 322 317 317
344 345 345 346 345 345 346 347 349 349 349 350 350 351 351 350 351 351 352 353 353 354 354 354 354 355 355 355 355 355 355 354 353 352 351 350 347 343 342 342 342 340 340 341 341 342 342 342 342 342 343 344 345 344 344 342 341 340 341 337 328 319 316
345 344 344 346 345 345 346 347 348 349 350 350 350 351 351 351 351 351 352 353 354 355 355 355 355 355 356 356 356 356 354 353 352 351 349 348 344 342 341 342 341 341 341 341 341 342 341 342 341 341 343 345 346 346 345 343 342 341 341 340 335 325 318
344 343 344 346 345 345 345 345 347 349 349 350 351 351 351 351 351 351 352 352 354 355 355 355 356 356 357 357 357 356 355 353 352 349 348 346 343 341 341 342 341 342 342 343 342 341 341 340 341 342 345 347 347 347 346 345 344 343 343 342 340 332 321
343 343 344 344 344 345 345 345 346 347 348 349 350 350 351 351 351 352 352 352 353 354 355 356 356 356 357 357 357 356 355 354 352 351 349 348 345 342 342 342 342 342 343 343 343 342 341 341 341 343 345 347 348 348 347 346 344 344 344 343 343 339 328
342 343 343 344 344 344 344 345 345 345 347 348 348 350 350 351 351 352 351 352 353 353 355 355 356 356 356 356 356 355 356 355 354 353 352 351 349 345 343 343 343 343 343 343 343 342 342 343 344 345 345 346 348 348 347 347 345 344 345 345 345 343 334
342 343 343 343 343 344 344 345 345 344 346 347 347 349 349 350 350 351 351 352 352 353 354 355 355 356 356 356 356 356 357 356 355 355 354 353 351 348 346 346 346 345 344 343 343 343 344 346 346 347 347 348 348 348 348 347 345 345 347 348 347 345 339
342 342 343 344 343 344 345 345 345 345 345 346 346 347 348 348 349 350 351 351 351 352 354 354 355 355 354 355 356 357 357 355 355 356 355 354 353 351 350 349 349 349 347 345 345 344 345 347 348 348 349 350 350 350 349 348 347 348 349 349 348 346 345
344 343 343 344 344 345 345 345 345 345 345 345 345 345 346 347 348 349 349 349 350 352 354 354 354 354 354 355 356 357 356 355 356 356 355 354 354 353 354 353 353 352 350 347 345 346 348 348 349 350 350 351 351 350 350 350 349 350 351 350 348 347 347
343 345 344 343 344 344 345 345 345 344 343 342 342 342 344 346 347 347 348 350 352 353 353 354 354 354 354 355 356 357 356 356 356 356 355 355 355 356 356 355 355 354 352 350 349 349 350 350 350 350 351 351 351 351 351 351 351 352 352 351 351 349 347
344 344 343 344 346 345 345 345 344 344 342 340 340 341 343 347 348 348 349 352 353 354 354 354 354 354 355 355 356 357 357 356 356 356 357 357 357 357 357 355 355 355 354 354 353 351 351 350 351 351 351 352 352 352 353 353 353 354 354 352 353 351 346
348 347 345 345 345 344 345 345 343 341 340 341 341 341 343 344 346 348 351 353 354 354 354 354 354 354 355 355 356 357 357 357 356 357 358 359 359 358 357 356 355 355 354 355 354 353 353 353 352 352 352 353 354 354 354 355 355 355 354 354 354 350 346
343 345 347 349 347 346 346 345 343 342 341 343 342 340 342 343 344 346 350 352 354 354 354 355 355 355 355 356 356 357 357 357 357 357 359 360 360 360 358 358 356 355 354 354 354 354 354 354 354 354 355 355 355 355 356 356 357 356 356 356 355 352 348
340 338 339 342 344 345 345 343 342 342 342 343 342 340 342 344 344 345 347 350 353 354 354 355 355 355 355 356 356 357 358 358 358 358 359 361 361 360 359 358 357 355 354 353 353 353 353 354 355 356 357 357 357 357 357 358 358 358 357 357 356 354 352
345 344 341 340 339 339 340 340 341 341 343 344 343 342 343 346 347 348 348 350 352 353 355 356 355 355 355 355 356 357 358 359 359 359 360 361 361 360 360 359 357 356 354 354 353 353 353 355 357 358 358 359 359 359 359 359 359 359 358 357 356 354 352
350 348 347 346 342 338 337 337 337 339 344 345 345 345 346 346 350 352 352 351 352 354 355 354 353 353 354 355 356 357 358 359 360 360 360 360 361 360 360 359 358 357 356 356 355 355 356 357 358 359 359 359 359 360 360 360 360 359 357 356 355 353 350
356 353 351 350 347 343 340 337 335 336 339 341 344 348 350 351 352 352 350 351 354 354 352 350 350 352 354 356 358 358 359 360 360 361 361 361 360 361 360 360 359 359 358 357 357 357 358 358 359 360 360 360 360 360 360 359 359 357 356 355 354 351 347
356 357 356 354 353 349 343 338 337 336 337 339 339 341 346 351 354 353 351 352 352 348 343 345 349 353 355 357 358 359 359 360 360 361 362 362 361 361 361 361 360 360 359 358 358 359 359 360 360 361 360 360 360 360 359 358 357 356 356 355 352 348 345
350 355 358 359 359 358 355 352 348 343 340 340 341 341 341 344 350 354 357 358 354 349 348 349 352 355 356 358 359 359 359 359 360 362 363 363 362 361 361 362 361 361 361 360 360 361 361 361 362 361 361 360 359 358 357 356 356 356 356 353 349 346 344
344 349 354 359 361 361 361 363 363 357 349 344 344 346 344 343 347 352 356 359 358 358 359 359 358 359 359 359 359 358 358 359 360 362 363 363 362 362 362 362 362 362 361 361 361 362 362 362 362 361 361 360 358 358 357 357 357 357 354 351 348 346 344
345 345 349 354 360 362 362 362 365 365 362 357 354 353 352 350 351 353 355 356 358 360 363 363 362 361 361 360 359 359 359 360 362 363 364 363 362 362 363 363 362 362 362 362 363 363 362 362 362 360 360 359 358 358 358 356 356 354 351 348 346 345 344
348 348 348 349 355 359 360 361 362 362 363 364 364 365 363 361 360 360 361 360 360 361 362 362 363 363 362 362 362 361 362 363 365 366 365 363 362 363 363 363 363 362 363 363 363 362 362 360 359 359 358 357 358 358 356 354 353 351 349 347 346 344 342
350 350 349 350 351 353 355 359 360 359 359 360 362 365 367 367 367 367 366 365 365 364 364 363 363 364 364 365 365 365 366 366 366 367 366 365 365 365 364 364 364 363 363 362 360 359 359 358 357 357 356 356 356 355 354 353 351 350 348 347 344 341 339
350 351 351 352 353 353 354 356 357 357 357 357 358 360 362 365 367 367 367 366 365 364 365 365 365 366 367 368 367 367 367 367 367 367 367 366 366 366 365 365 363 362 359 356 354 355 355 355 355 355 354 354 354 353 353 351 350 349 347 345 342 339 338
348 349 350 351 352 353 354 356 357 357 358 357 356 357 357 360 362 364 365 364 364 365 365 366 368 367 366 366 366 363 363 365 368 368 367 366 365 364 363 361 358 356 354 352 352 353 354 354 354 354 354 353 352 352 351 350 349 347 345 343 341 338 336
345 346 347 348 349 350 352 354 356 357 357 357 356 356 356 358 360 361 361 360 361 363 363 365 366 362 356 356 358 356 356 360 363 364 364 364 363 361 358 356 354 353 352 353 353 353 353 352 352 352 352 351 349 349 348 347 346 345 343 341 339 337 335
344 344 345 345 346 347 348 349 351 354 356 357 357 357 357 357 358 360 361 362 363 365 365 365 363 356 350 349 350 350 352 355 358 359 360 359 358 357 354 353 353 353 352 353 353 353 352 352 351 350 348 347 347 346 346 345 344 343 342 341 338 336 334
344 344 345 345 345 346 346 346 347 348 350 351 353 353 353 354 354 354 355 358 362 363 361 359 356 351 346 344 343 346 350 353 354 355 356 355 354 354 353 352 353 353 353 353 352 351 350 349 348 347 346 345 345 345 345 345 343 341 340 339 337 336 335
Wind_Speed
46 47 49 51 52 53 55 57 57 57 57 58 58 59 58 58 57 56 55 55 53 52 51 50 49 48 48 47 46 44 43 42 42 41 39 38 35 34 33 33 33 32 31 30 29 27 26 25 24 23 21 18 16 13 11 13 16 17 17 17 15 13 13
43 46 49 50 51 53 55 58 58 58 58 58 59 59 59 59 59 58 57 56 54 53 51 51 49 48 48 47 46 46 44 43 43 42 41 40 38 36 35 34 34 33 32 31 30 28 27 26 25 25 23 20 18 15 13 14 17 19 18 17 15 14 14
43 45 48 50 52 54 56 57 58 58 58 58 59 59 60 60 60 59 58 57 55 54 52 51 49 47 46 47 47 46 45 44 44 44 42 41 39 37 36 35 34 34 33 32 31 30 28 27 27 26 24 22 20 16 15 16 19 21 20 18 16 14 14
43 46 50 52 54 56 56 57 57 57 58 58 59 59 60 60 60 59 58 57 56 55 53 52 49 47 45 46 47 47 46 45 45 44 43 41 40 38 37 37 36 35 34 34 33 31 30 29 29 27 26 25 22 18 16 18 20 22 22 20 17 16 14
43 46 48 50 53 54 54 55 56 57 57 58 59 59 59 59 59 59 58 57 56 54 52 50 49 47 46 45 46 47 46 46 45 44 43 42 41 39 39 39 38 37 36 35 34 33 32 31 31 29 28 26 24 21 19 19 21 23 23 21 19 18 17
41 43 45 48 50 52 54 55 56 57 58 58 59 58 58 58 58 59 58 57 56 54 52 50 49 48 47 46 46 46 46 45 45 45 44 43 42 41 40 40 39 38 37 36 35 34 34 33 32 31 30 28 26 23 21 20 22 23 24 23 22 20 19
41 42 44 47 50 52 54 56 57 57 58 58 58 57 57 57 57 58 57 57 56 55 53 52 50 48 47 46 45 45 45 45 46 46 45 44 43 42 42 41 40 39 38 38 37 36 35 34 33 32 31 29 27 25 22 22 22 23 24 24 24 22 22
43 44 45 47 50 53 54 55 56 56 56 55 55 55 56 57 57 57 57 57 56 55 54 53 51 49 47 46 45 45 44 44 45 45 46 45 44 44 43 42 41 40 40 39 39 38 36 35 35 34 33 31 29 27 25 24 24 24 24 25 25 24 24
45 46 49 51 53 54 53 54 55 54 53 52 53 55 56 56 57 57 57 57 55 55 55 53 51 49 47 46 46 45 43 44 44 45 46 46 45 45 44 44 43 42 41 41 40 39 38 37 36 35 34 33 32 29 27 26 26 25 25 25 25 25 25
44 46 50 53 54 53 52 52 52 51 52 52 53 54 55 56 57 57 56 56 56 55 54 53 51 49 48 47 46 45 44 44 44 45 46 46 46 46 45 45 44 43 42 42 41 40 39 38 37 36 36 35 34 32 30 29 28 28 27 25 25 26 26
44 48 51 53 52 50 48 48 49 50 53 53 53 53 54 55 56 55 56 56 56 55 54 52 51 50 50 48 47 46 45 44 44 45 46 46 47 46 46 46 45 44 43 43 42 41 40 40 39 38 38 37 36 34 32 31 30 30 28 26 25 26 26
43 47 49 49 47 44 44 46 48 52 53 54 54 53 54 55 55 55 55 55 55 54 53 53 52 51 51 50 49 48 46 45 44 45 46 46 47 46 46 46 46 45 44 43 43 42 41 41 40 40 39 38 37 36 34 33 33 32 30 28 26 27 27
42 45 45 46 45 42 43 46 49 51 52 54 54 54 55 55 55 56 55 55 54 53 53 53 52 52 51 51 50 49 48 46 45 44 44 46 46 46 46 46 46 45 45 44 43 43 42 42 41 40 40 39 38 37 36 35 35 34 33 31 28 27 28
40 39 40 42 43 43 44 45 48 50 51 53 54 54 55 54 55 56 55 55 54 53 53 53 52 52 52 51 51 51 49 47 45 44 43 44 46 46 47 47 47 46 45 44 44 43 43 42 41 41 40 40 39 39 38 37 37 37 36 34 32 29 28
38 37 38 40 41 43 45 45 48 50 50 51 52 53 53 54 54 55 55 54 54 54 54 54 53 53 52 52 52 52 50 47 46 45 44 44 46 48 48 48 48 47 46 45 45 44 43 42 42 41 41 41 40 40 40 40 40 40 38 37 34 31 28
36 38 40 43 43 44 46 47 48 50 50 50 51 52 52 53 54 55 55 55 54 54 55 54 53 53 53 53 53 52 50 48 47 46 46 46 47 48 49 49 48 48 47 46 45 44 44 43 43 43 42 42 42 42 42 42 42 42 40 38 35 32 28
32 37 39 42 45 45 47 48 50 50 50 50 50 51 52 52 53 54 55 54 54 55 55 54 54 54 54 54 53 51 50 48 48 48 47 47 47 48 49 49 49 49 48 47 47 45 45 45 44 44 43 43 43 43 44 44 43 43 41 39 36 31 29
32 36 39 41 41 43 45 47 49 50 49 49 48 49 51 52 53 54 54 54 55 56 55 55 55 55 55 54 53 51 50 49 48 49 48 48 48 49 49 50 50 50 49 48 47 47 46 46 46 45 44 44 44 44 45 45 44 43 42 40 37 32 30
33 36 40 41 41 41 43 46 49 50 49 46 45 47 49 51 53 54 53 54 55 56 56 56 56 56 55 54 53 52 50 49 49 49 49 49 49 49 49 50 50 50 50 49 48 47 47 46 46 46 45 45 45 45 45 45 44 43 42 42 40 34 31
32 34 38 42 43 44 45 46 48 49 46 44 43 44 47 50 51 51 50 52 54 56 57 57 57 57 56 54 54 52 51 50 50 50 50 49 49 48 49 50 50 50 50 49 48 47 47 47 47 46 46 46 46 46 45 45 44 43 42 43 42 36 31
30 33 37 39 40 42 46 47 48 47 46 45 45 44 46 48 49 49 50 53 55 56 57 57 57 57 56 55 54 53 51 50 50 50 50 49 49 49 49 50 50 50 49 49 48 48 48 48 47 47 47 47 46 45 45 44 43 42 41 41 42 39 33
21 27 33 35 38 41 46 48 48 46 46 48 48 46 46 46 47 48 51 54 54 55 56 56 56 56 56 55 54 54 53 52 51 50 50 49 49 49 49 49 50 50 49 49 49 49 48 48 47 47 47 46 45 45 44 43 42 41 40 38 38 39 36
6 14 20 25 32 38 42 46 47 46 48 50 50 49 47 46 47 49 51 53 54 54 54 54 55 55 55 56 55 55 54 53 52 51 50 50 50 49 49 49 49 49 49 49 49 49 49 49 48 47 46 45 45 44 43 42 42 41 39 36 34 34 33
9 3 7 13 23 31 36 41 43 45 47 49 49 49 47 47 48 50 51 52 53 53 53 54 54 55 55 55 56 56 55 54 53 52 51 51 51 50 49 48 47 47 47 48 49 49 48 48 47 46 45 44 44 42 41 41 41 40 38 35 30 28 27
13 10 7 5 10 17 23 28 33 38 43 46 47 47 46 46 47 48 49 51 51 52 53 54 54 54 55 55 55 56 56 55 55 53 53 52 51 50 49 48 46 45 45 46 47 47 46 46 46 45 44 43 42 41 40 41 40 39 37 32 27 25 25
10 9 8 7 5 4 6 11 17 25 33 39 44 47 48 46 45 46 48 49 51 52 53 54 53 53 53 54 55 56 56 56 56 55 54 54 52 50 49 47 46 45 45 45 44 44 45 45 45 44 43 42 41 40 40 41 38 36 34 28 24 25 26
7 5 4 4 4 1 2 5 8 12 17 24 31 41 47 47 47 48 49 50 52 53 52 52 52 52 53 54 55 55 56 56 56 56 56 54 52 51 49 47 46 45 44 42 42 43 44 44 43 42 42 41 40 39 39 37 34 31 28 25 24 25 26
7 5 3 3 2 1 2 5 9 9 9 12 17 27 36 42 45 48 50 52 53 53 51 51 52 53 54 55 56 56 56 56 56 56 55 54 52 51 49 47 46 44 41 40 41 42 42 42 41 41 40 39 37 36 34 31 28 26 25 24 25 25 25
8 8 6 5 4 3 3 4 7 10 10 10 11 15 23 33 41 45 47 50 52 51 51 52 53 54 54 55 56 56 56 56 56 55 55 54 53 51 49 48 46 42 39 39 40 40 41 41 41 40 39 37 35 32 30 27 25 24 23 24 23 22 21
10 10 9 9 7 6 5 5 6 9 12 13 12 12 15 23 34 42 45 47 49 48 47 49 51 52 53 54 55 55 54 54 54 55 55 53 51 50 49 46 43 40 39 39 40 40 41 41 40 39 37 35 32 30 28 26 24 24 24 23 21 19 19
11 10 9 9 9 7 5 4 5 7 9 10 11 12 13 17 26 35 42 46 47 46 43 43 45 48 50 52 53 53 53 52 52 53 52 50 49 50 48 44 40 39 40 41 40 40 40 40 39 37 34 32 31 30 27 24 23 24 24 22 18 17 17
9 9 8 7 7 7 5 4 4 4 5 6 8 10 12 16 21 29 36 40 42 42 41 40 40 43 45 47 49 50 50 51 51 50 49 48 48 47 44 41 40 41 41 40 39 38 38 37 35 33 31 30 30 28 25 22 22 23 23 21 19 17 16
8 8 8 8 8 8 7 7 8 7 6 6 8 11 14 17 20 24 28 30 31 33 35 36 38 40 42 43 44 46 47 49 49 49 48 47 46 44 42 41 41 40 39 38 37 36 34 32 31 29 28 28 27 25 23 22 22 22 22 22 21 19 18
8 7 7 8 8 8 9 9 10 10 9 8 8 11 15 18 21 23 25 27 28 28 30 31 34 37 40 40 41 42 45 48 49 50 49 48 46 44 42 40 38 36 35 34 33 32 30 29 28 27 26 26 24 23 23 23 23 22 23 24 22 21 21
8 6 5 5 6 7 9 9 9 10 9 8 9 11 14 16 19 23 26 28 30 32 32 33 34 35 37 40 42 43 45 48 51 51 50 48 45 41 38 35 32 31 30 28 26 26 26 25 24 24 23 21 21 21 22 23 22 21 22 22 20 18 18
12 10 7 6 6 6 6 5 5 7 7 7 8 12 15 16 17 21 25 29 31 32 34 36 37 34 32 35 41 43 44 45 47 48 47 44 41 39 35 31 28 26 25 24 23 22 21 20 19 18 17 17 16 17 18 18 17 18 21 20 17 15 15
19 17 14 10 9 9 8 6 3 4 5 6 8 11 15 17 16 18 23 29 32 32 34 39 41 38 33 32 35 36 36 38 39 40 39 37 35 34 33 30 27 25 23 22 21 20 19 17 16 15 14 14 15 16 16 15 13 15 18 18 16 16 16
25 24 21 18 16 17 16 13 9 4 0 3 6 9 10 9 9 12 19 25 30 33 35 38 39 38 34 31 30 29 31 33 33 33 33 32 29 28 29 29 28 27 24 22 20 19 18 18 17 16 15 14 14 14 15 16 14 14 15 17 17 17 17
Wind_Direction
195 196 196 197 199 200 203 204 205 206 207 207 207 207 207 208 209 211 212 214 216 216 217 218 221 223 225 227 227 227 224 221 221 221 222 223 223 222 220 219 220 222 223 222 224 227 228 227 228 229 230 232 235 238 238 231 231 230 225 224 221 209 206
194 196 197 197 198 200 204 206 206 207 207 208 208 208 208 208 209 210 212 214 216 217 218 218 220 223 226 228 228 227 225 222 221 221 222 224 224 224 223 223 223 224 224 226 228 230 230 229 231 233 233 233 233 234 236 233 233 231 225 223 223 216 213
195 195 196 198 199 201 204 206 207 207 208 208 208 208 208 209 210 211 212 214 215 217 218 219 221 223 226 228 228 227 227 224 222 221 222 224 224 224 224 225 226 226 226 227 229 230 231 230 232 235 235 234 232 232 234 233 233 233 228 223 224 223 221
196 196 196 198 201 203 204 205 207 207 208 209 209 209 210 210 211 212 214 215 216 216 217 219 221 224 226 228 227 227 227 226 224 223 223 224 225 224 224 225 226 227 227 228 229 230 230 231 233 234 235 234 231 231 234 234 232 232 230 225 224 226 227
198 196 196 198 200 203 204 205 207 207 208 210 210 211 211 211 211 212 214 215 216 218 220 221 222 224 226 227 227 227 227 227 226 225 225 225 226 225 224 225 226 227 228 228 229 229 230 231 232 233 233 232 230 230 233 234 231 230 229 226 224 225 227
199 196 195 197 199 202 204 206 208 209 209 210 210 211 211 210 210 211 213 215 216 218 220 221 223 224 226 226 227 227 227 228 227 227 226 226 226 227 226 226 226 227 228 229 229 229 230 231 231 231 231 231 230 230 232 233 230 230 229 226 224 224 225
198 197 196 198 200 203 205 207 208 210 211 210 210 210 209 209 210 212 213 214 215 216 217 219 222 224 225 226 226 227 227 228 228 227 227 227 227 228 227 226 227 228 229 230 231 231 231 232 231 231 231 231 231 231 232 233 232 232 231 228 226 224 225
200 198 198 200 202 206 207 207 208 209 209 208 207 207 207 209 210 211 213 214 215 215 216 219 222 224 225 225 225 227 228 229 229 228 228 228 228 229 228 227 227 228 229 230 232 232 233 233 232 231 230 231 232 232 233 234 234 234 233 232 229 226 225
201 199 200 203 205 207 208 208 208 208 206 206 206 207 207 209 210 212 213 214 214 215 217 219 222 224 225 225 225 227 228 229 229 228 228 228 229 229 229 228 228 229 230 231 232 232 233 234 234 232 231 232 233 233 233 233 234 234 235 235 234 231 228
198 198 201 204 206 208 208 208 207 205 204 205 206 207 207 208 210 212 212 213 214 216 218 219 221 222 223 224 226 227 227 228 229 229 228 229 229 229 228 228 229 230 231 232 232 233 233 234 234 234 233 233 234 233 233 234 235 235 235 236 238 237 233
196 198 202 204 206 206 205 205 204 203 203 205 205 206 207 208 210 212 212 213 215 216 217 219 220 221 222 223 225 226 226 227 228 229 229 229 229 229 229 228 229 231 231 232 233 234 234 234 234 234 233 234 234 235 235 236 237 238 237 238 239 239 238
196 200 203 204 205 203 202 202 203 203 203 204 205 206 207 209 211 213 214 215 215 216 217 218 220 220 220 221 223 224 226 227 228 229 229 229 228 228 228 228 229 231 231 232 233 234 235 235 235 236 236 235 235 236 238 239 241 241 240 240 240 241 240
199 203 204 204 203 201 200 201 202 204 204 204 205 207 209 212 213 214 215 215 215 216 217 218 219 219 219 220 221 223 226 227 228 229 229 230 228 228 228 228 229 230 231 232 233 234 235 236 237 238 238 238 237 238 240 242 243 244 243 241 240 242 242
202 204 203 202 202 201 201 201 202 204 205 205 206 209 211 213 214 215 216 216 215 215 217 218 218 218 219 220 221 223 225 227 228 229 230 230 229 228 228 229 229 230 231 232 233 234 236 237 238 239 239 239 240 240 242 244 245 245 244 242 240 240 242
202 203 202 202 203 203 203 202 202 205 207 207 207 209 210 212 214 215 216 217 216 216 217 218 218 218 218 219 222 224 225 227 228 229 229 229 229 228 228 229 229 230 231 232 234 235 236 237 239 240 240 241 241 241 243 245 246 247 246 244 242 240 241
199 202 203 204 205 205 205 205 204 207 209 208 209 210 211 212 214 215 216 217 217 217 217 217 217 218 218 220 224 225 224 225 227 227 228 228 229 229 229 229 229 230 231 233 235 236 236 236 238 239 241 242 242 242 244 246 249 249 248 247 245 242 242
200 203 204 206 206 206 206 205 205 208 210 210 211 212 213 215 217 217 217 217 217 218 217 216 217 219 220 222 224 223 222 225 226 226 227 228 229 229 229 229 229 230 232 233 235 236 236 236 237 239 240 241 242 244 245 248 251 251 250 247 243 241 244
201 203 204 206 207 206 205 203 204 207 210 212 214 216 217 219 219 218 218 218 219 219 217 216 218 220 222 224 223 221 223 225 226 226 227 228 229 229 228 228 228 229 231 232 234 236 236 236 238 240 241 241 243 245 247 251 253 253 251 244 236 238 246
201 201 203 205 207 207 205 203 205 209 212 215 219 221 223 222 220 220 221 222 222 219 216 216 218 220 223 223 221 221 224 226 225 226 227 228 229 229 227 226 227 228 229 232 234 235 235 237 238 240 241 242 244 246 249 252 254 253 250 240 235 240 247
199 200 203 206 207 207 206 206 208 211 215 219 222 225 226 224 223 224 225 224 221 218 216 217 219 220 221 222 221 221 223 225 226 227 227 228 228 227 227 226 226 227 229 231 233 233 234 236 238 240 242 243 245 247 250 253 255 253 247 241 242 246 244
199 199 203 205 206 206 206 207 210 213 217 220 220 223 225 225 225 227 226 223 220 217 217 218 219 219 219 220 220 221 221 223 226 227 227 227 226 226 227 227 226 227 228 230 231 233 235 237 238 240 242 244 246 247 250 253 254 251 246 245 249 247 238
209 204 205 206 207 208 207 208 210 214 217 219 218 221 224 225 226 226 226 223 220 218 219 218 218 219 219 219 220 220 221 222 225 226 226 225 225 225 226 227 227 228 228 230 232 233 235 236 238 240 241 243 245 247 250 253 252 250 247 248 252 245 236
212 211 214 215 214 212 209 209 212 215 217 218 218 220 222 224 225 225 225 224 221 220 219 218 218 219 220 220 220 220 221 222 223 225 225 224 224 225 226 226 227 228 228 230 231 233 235 236 237 239 240 242 244 246 248 251 251 249 249 249 250 247 244
64 133 212 222 221 220 218 218 220 221 220 218 218 221 224 225 224 224 223 223 222 221 220 219 220 221 221 222 222 221 221 221 222 224 224 224 224 224 225 225 226 228 228 230 232 233 235 236 237 238 239 241 243 245 248 250 251 251 250 249 250 251 254
58 81 108 154 204 220 225 228 232 234 232 227 224 224 226 227 227 225 224 224 224 222 220 221 224 224 225 226 226 223 222 221 221 223 223 224 224 224 225 225 225 227 228 230 232 234 235 236 236 237 239 240 242 245 247 248 249 250 250 249 251 254 254
49 76 97 108 130 187 227 235 238 239 240 238 234 230 230 231 231 229 228 229 226 223 223 226 229 230 230 229 227 224 222 221 221 221 222 223 224 224 224 225 224 225 226 228 230 232 234 235 236 237 238 240 242 243 244 245 246 247 248 248 252 253 250
50 65 78 93 106 108 298 283 265 246 240 242 240 237 235 234 233 233 234 232 228 226 229 232 233 233 231 229 226 224 223 221 221 220 220 221 223 223 222 223 224 224 224 226 228 229 231 233 234 236 237 239 240 241 241 242 242 243 245 247 250 249 246
53 60 57 66 68 36 286 294 295 284 257 241 239 241 240 237 235 235 234 232 230 232 235 234 233 231 230 228 226 225 223 221 220 219 217 216 219 220 220 221 221 221 223 224 225 227 228 230 232 233 235 237 238 238 238 238 238 240 244 247 248 245 243
28 31 32 39 39 31 13 331 315 310 298 276 256 249 246 242 239 236 232 230 232 234 234 232 231 230 228 226 225 224 223 221 218 216 213 212 215 217 218 217 217 217 220 222 223 224 225 226 228 230 232 233 234 233 234 235 238 242 246 246 244 240 238
3 4 5 8 10 16 16 352 322 311 305 297 286 274 261 251 245 239 234 232 232 232 229 228 227 226 225 225 224 223 221 218 215 212 209 209 211 214 215 214 213 214 217 220 221 221 221 222 224 226 228 230 230 230 232 236 239 242 242 239 235 231 230
351 347 348 349 347 350 357 343 311 298 293 287 280 274 270 263 252 244 239 236 234 230 227 226 226 225 224 223 222 220 217 213 209 206 204 205 209 212 211 210 209 211 214 216 217 218 218 219 221 223 226 228 231 233 234 235 236 237 234 228 224 224 226
350 339 333 325 313 311 311 287 265 261 257 249 239 236 243 249 248 244 241 238 234 231 227 225 224 223 222 220 217 214 210 205 200 198 199 203 207 208 207 206 208 210 211 211 213 216 217 218 219 220 223 227 230 231 230 228 229 230 226 219 214 216 220
359 338 325 315 299 288 277 261 251 248 240 228 217 212 216 222 227 231 231 229 227 227 225 224 223 220 217 214 211 206 201 196 192 191 194 197 199 200 202 205 206 207 207 207 210 212 214 215 216 216 219 222 224 223 220 219 222 221 217 214 211 209 210
7 345 326 317 303 284 269 257 250 249 246 239 230 221 216 216 218 218 216 213 211 211 210 210 212 212 209 204 199 194 191 189 189 189 190 191 192 194 197 200 202 204 205 206 206 204 204 207 210 213 216 217 216 214 213 215 218 218 215 213 210 206 205
29 12 356 347 335 308 285 266 247 236 228 222 229 232 228 224 222 217 213 210 208 206 204 199 195 195 196 194 188 184 184 185 187 187 187 187 187 189 190 192 196 200 200 199 198 198 199 202 205 209 212 212 212 212 212 214 218 220 218 216 213 208 206
50 40 34 32 23 3 338 314 279 254 234 217 227 237 237 235 233 227 224 220 213 208 207 203 192 182 179 182 181 180 180 180 180 181 181 181 182 182 182 183 186 189 190 189 190 194 198 201 202 203 204 207 212 216 216 218 222 222 218 214 213 210 208
59 51 45 44 43 36 30 24 350 289 259 234 228 232 233 233 233 228 222 216 207 201 203 204 195 183 177 177 175 175 177 175 172 172 172 172 174 178 177 176 176 180 185 190 190 191 193 195 196 198 199 201 205 209 212 217 221 220 215 211 208 205 205
66 61 58 58 57 53 48 47 49 51 3 233 224 222 220 214 217 224 220 213 206 200 195 191 186 180 179 181 181 181 181 176 169 166 164 164 168 173 175 175 176 177 180 184 185 185 186 188 191 192 191 194 200 206 211 210 204 201 204 205 203 201 203